Hourly Weather Quito

Today, 8 July, Wednesday

Time Temperature Precipitation Wind Pressure Humidity
00:00 +9°C° 0 mm 1 mps 620 mmHg 38%
01:00 +9°C° 0 mm 1 mps 620 mmHg 40%
02:00 +8°C° 0 mm 1 mps 620 mmHg 42%
03:00 +7°C° 0 mm 1 mps 620 mmHg 43%
04:00 +7°C° 0 mm 1 mps 619 mmHg 44%
05:00 +7°C° 0 mm 1 mps 620 mmHg 43%
06:00 +8°C° 0 mm 1 mps 621 mmHg 41%
07:00 +8°C° 0 mm 1 mps 622 mmHg 40%
08:00 +12°C° 0 mm 2 mps 623 mmHg 33%
09:00 +16°C° 0 mm 2 mps 624 mmHg 25%
10:00 +20°C° 0 mm 3 mps 625 mmHg 18%
11:00 +24°C° 0 mm 2 mps 625 mmHg 16%
12:00 +26°C° 0 mm 2 mps 625 mmHg 14%
13:00 +28°C° 0 mm 1 mps 625 mmHg 12%
14:00 +28°C° 0 mm 1 mps 625 mmHg 12%
15:00 +27°C° 0 mm 1 mps 624 mmHg 11%
16:00 +27°C° 0 mm 1 mps 623 mmHg 11%
17:00 +23°C° 0 mm 1 mps 622 mmHg 16%
18:00 +19°C° 0 mm 1 mps 621 mmHg 21%
19:00 +14°C° 0 mm 1 mps 620 mmHg 26%
20:00 +13°C° 0 mm 1 mps 621 mmHg 26%
21:00 +13°C° 0 mm 1 mps 621 mmHg 26%
22:00 +11°C° 0 mm 0 mps 621 mmHg 26%
23:00 +11°C° 0 mm 0 mps 621 mmHg 25%

Tomorrow, 9 July, Thursday

Time Temperature Precipitation Wind Pressure Humidity
00:00 +12°C° 0 mm 1 mps 621 mmHg 25%
01:00 +12°C° 0 mm 1 mps 621 mmHg 25%
02:00 +11°C° 0 mm 1 mps 621 mmHg 26%
03:00 +10°C° 0 mm 0 mps 621 mmHg 27%
04:00 +9°C° 0 mm 0 mps 620 mmHg 27%
05:00 +10°C° 0 mm 0 mps 621 mmHg 28%
06:00 +10°C° 0 mm 0 mps 621 mmHg 29%
07:00 +11°C° 0 mm 1 mps 622 mmHg 29%
08:00 +16°C° 0 mm 1 mps 623 mmHg 24%
09:00 +21°C° 0 mm 1 mps 624 mmHg 19%
10:00 +26°C° 0 mm 1 mps 626 mmHg 14%
11:00 +27°C° 0 mm 1 mps 625 mmHg 13%
12:00 +29°C° 0 mm 1 mps 625 mmHg 13%
13:00 +30°C° 0 mm 1 mps 625 mmHg 12%
14:00 +30°C° 0 mm 2 mps 624 mmHg 12%
15:00 +30°C° 0 mm 2 mps 624 mmHg 12%
16:00 +29°C° 0 mm 2 mps 623 mmHg 13%
17:00 +25°C° 0 mm 2 mps 622 mmHg 18%
18:00 +21°C° 0 mm 1 mps 622 mmHg 23%
19:00 +16°C° 0 mm 1 mps 621 mmHg 29%
20:00 +16°C° 0 mm 1 mps 621 mmHg 29%
21:00 +16°C° 0 mm 1 mps 621 mmHg 30%
22:00 +15°C° 0 mm 1 mps 622 mmHg 30%
23:00 +15°C° 0 mm 1 mps 622 mmHg 31%

Day after tomorrow, 10 July, Friday

Time Temperature Precipitation Wind Pressure Humidity
00:00 +15°C° 0 mm 1 mps 622 mmHg 31%
01:00 +15°C° 0 mm 1 mps 622 mmHg 32%
02:00 +14°C° 0 mm 1 mps 621 mmHg 35%
03:00 +12°C° 0 mm 1 mps 621 mmHg 38%
04:00 +10°C° 0 mm 0 mps 620 mmHg 41%
05:00 +12°C° 0 mm 1 mps 621 mmHg 40%
06:00 +12°C° 0 mm 1 mps 622 mmHg 39%
07:00 +13°C° 0 mm 1 mps 622 mmHg 38%
08:00 +19°C° 0 mm 1 mps 624 mmHg 31%
09:00 +23°C° 0 mm 1 mps 625 mmHg 24%
10:00 +28°C° 0 mm 1 mps 626 mmHg 17%
11:00 +29°C° 0 mm 2 mps 626 mmHg 16%
12:00 +30°C° 0 mm 2 mps 625 mmHg 15%
13:00 +31°C° 0 mm 2 mps 625 mmHg 15%
14:00 +31°C° 0 mm 2 mps 624 mmHg 15%
15:00 +31°C° 0 mm 2 mps 624 mmHg 15%
16:00 +30°C° 0 mm 2 mps 623 mmHg 15%
17:00 +26°C° 0 mm 1 mps 622 mmHg 21%
18:00 +23°C° 0 mm 1 mps 621 mmHg 27%
19:00 +19°C° 0 mm 1 mps 620 mmHg 33%
20:00 +18°C° 0 mm 1 mps 621 mmHg 34%
21:00 +18°C° 0 mm 1 mps 621 mmHg 34%
22:00 +16°C° 0 mm 1 mps 622 mmHg 35%
23:00 +16°C° 0 mm 1 mps 621 mmHg 36%

11 July, Saturday

Time Temperature Precipitation Wind Pressure Humidity
00:00 +15°C° 0 mm 2 mps 621 mmHg 37%
01:00 +15°C° 0 mm 2 mps 621 mmHg 38%
02:00 +14°C° 0 mm 2 mps 621 mmHg 36%
03:00 +14°C° 0 mm 2 mps 621 mmHg 35%
04:00 +13°C° 0 mm 2 mps 621 mmHg 33%
05:00 +13°C° 0 mm 2 mps 621 mmHg 33%
06:00 +13°C° 0 mm 2 mps 622 mmHg 32%
07:00 +13°C° 0 mm 2 mps 622 mmHg 32%
08:00 +17°C° 0 mm 2 mps 623 mmHg 26%
09:00 +22°C° 0 mm 3 mps 624 mmHg 20%
10:00 +27°C° 0 mm 4 mps 626 mmHg 14%
11:00 +28°C° 0 mm 4 mps 625 mmHg 14%
12:00 +29°C° 0 mm 3 mps 625 mmHg 15%
13:00 +30°C° 0 mm 3 mps 624 mmHg 15%
14:00 +30°C° 0 mm 3 mps 624 mmHg 16%
15:00 +30°C° 0 mm 3 mps 623 mmHg 16%
16:00 +30°C° 0 mm 2 mps 623 mmHg 16%
17:00 +26°C° 0 mm 2 mps 622 mmHg 20%
18:00 +23°C° 0 mm 1 mps 622 mmHg 25%
19:00 +20°C° 0 mm 1 mps 621 mmHg 29%
20:00 +20°C° 0 mm 1 mps 622 mmHg 30%
21:00 +19°C° 0 mm 1 mps 622 mmHg 30%
22:00 +19°C° 0 mm 1 mps 622 mmHg 31%
23:00 +18°C° 0 mm 1 mps 622 mmHg 32%

12 July, Sunday

Time Temperature Precipitation Wind Pressure Humidity
00:00 +16°C° 0 mm 1 mps 622 mmHg 33%
01:00 +16°C° 0 mm 1 mps 622 mmHg 35%
02:00 +15°C° 0 mm 2 mps 622 mmHg 36%
03:00 +15°C° 0 mm 2 mps 622 mmHg 37%
04:00 +14°C° 0 mm 2 mps 622 mmHg 38%
05:00 +14°C° 0 mm 2 mps 622 mmHg 38%
06:00 +14°C° 0 mm 2 mps 623 mmHg 38%
07:00 +14°C° 0 mm 2 mps 623 mmHg 38%
08:00 +17°C° 0 mm 3 mps 624 mmHg 32%
09:00 +20°C° 0 mm 4 mps 625 mmHg 26%
10:00 +23°C° 0 mm 4 mps 625 mmHg 20%
11:00 +26°C° 0 mm 4 mps 625 mmHg 19%
12:00 +28°C° 0 mm 4 mps 625 mmHg 18%
13:00 +30°C° 0 mm 4 mps 625 mmHg 16%
14:00 +30°C° 0 mm 4 mps 625 mmHg 16%
15:00 +30°C° 0 mm 3 mps 624 mmHg 16%
16:00 +30°C° 0 mm 3 mps 624 mmHg 16%
17:00 +26°C° 0 mm 2 mps 623 mmHg 21%
18:00 +23°C° 0 mm 2 mps 623 mmHg 26%
19:00 +20°C° 0 mm 1 mps 622 mmHg 31%
20:00 +19°C° 0 mm 1 mps 622 mmHg 33%
21:00 +18°C° 0 mm 1 mps 622 mmHg 35%
22:00 +16°C° 0 mm 1 mps 623 mmHg 37%
23:00 +16°C° 0 mm 1 mps 622 mmHg 39%

13 July, Monday

Time Temperature Precipitation Wind Pressure Humidity
00:00 +15°C° 0 mm 1 mps 622 mmHg 42%
01:00 +14°C° 0 mm 1 mps 622 mmHg 44%
02:00 +14°C° 0 mm 1 mps 622 mmHg 46%
03:00 +13°C° 0 mm 1 mps 622 mmHg 48%
04:00 +13°C° 0 mm 1 mps 622 mmHg 50%
05:00 +13°C° 0 mm 1 mps 622 mmHg 49%
06:00 +14°C° 0 mm 2 mps 622 mmHg 49%
07:00 +14°C° 0 mm 2 mps 623 mmHg 48%
08:00 +17°C° 0 mm 3 mps 624 mmHg 40%
09:00 +21°C° 0 mm 4 mps 625 mmHg 32%
10:00 +25°C° 0 mm 5 mps 626 mmHg 24%
11:00 +27°C° 0 mm 4 mps 625 mmHg 22%
12:00 +28°C° 0 mm 4 mps 625 mmHg 21%
13:00 +30°C° 0 mm 3 mps 625 mmHg 19%
14:00 +29°C° 0 mm 3 mps 625 mmHg 19%
15:00 +29°C° 0 mm 3 mps 624 mmHg 19%
16:00 +29°C° 0 mm 3 mps 624 mmHg 19%
17:00 +26°C° 0 mm 3 mps 623 mmHg 25%
18:00 +21°C° 0 mm 2 mps 622 mmHg 30%
19:00 +19°C° 0 mm 1 mps 622 mmHg 36%
20:00 +18°C° 0 mm 1 mps 622 mmHg 37%
21:00 +16°C° 0 mm 1 mps 622 mmHg 38%
22:00 +16°C° 0 mm 1 mps 622 mmHg 40%
23:00 +15°C° 0 mm 1 mps 622 mmHg 42%
Show more